Regional Weather Roundup
Issued by NWS State College, PA

Home | Current Version | Previous Version | Text Only | Print | Product List | Glossary On
Versions: 1 2 3 4 5 6 7 8 9 10 11 12 13 14 15 16 17 18 19 20 21 22 23 24 25 26 27 28 29 30 31 32 33 34 35 36 37 38 39 40 41 42 43 44 45 46 47 48 49 50
000
ASUS41 KCTP 310710
RWRCTP

REGIONAL WEATHER ROUNDUP
NATIONAL WEATHER SERVICE STATE COLLEGE PA
300 AM EDT THU JUL 31 2014

Note: "fair" indicates few or no clouds below 12,000 feet with no
significant weather and/or obstructions to visibility.

* = STATION THAT DOES NOT REPORT PRECIPITATION /E.G. RAIN...SNOW...ETC/
    THUNDER OR FOG.

PAZ002>004-007>009-013>016-020>023-029>032-310800-
WESTERN PENNSYLVANIA

CITY           SKY/WX    TMP DP  RH WIND       PRES   REMARKS
ERIE           CLOUDY    62  58  86 S5        29.98F
MEADVILLE      PTCLDY    59  56  89 S6        30.01R
FRANKLIN*      CLOUDY    57  54  88 S10       30.04F
NEW CASTLE     LGT RAIN  60  60 100 CALM      30.04F FOG
BEAVER COUNTY  NOT AVBL
BUTLER*        MOCLDY    57  55  94 CALM      30.07R
PITTSBURGH INT PTCLDY    59  57  93 S3        30.05F
PITTSBURGH     PTCLDY    58  56  93 S5        30.06S
INDIANA*       CLOUDY    57  57 100 CALM      30.10S
LATROBE        CLEAR     55  55 100 S6        30.08S
WASHINGTON CO* MOCLDY    54  52  94 CALM      30.07S VSB 1/2
$$

PAZ004>006-010>012-017>019-024>028-033>037-041-042-045-046-049>053-310800-
CENTRAL PENNSYLVANIA

CITY           SKY/WX    TMP DP  RH WIND       PRES   REMARKS
BRADFORD       MOCLDY    55  53  93 VRB6      30.05R
DUBOIS         CLOUDY    57  55  93 SW6       30.05S
CLEARFIELD     FOG       56  56 100 NW3       30.06F VSB 1/4
JOHNSTOWN      CLEAR     56  53  90 SW9       30.09S
ALTOONA        FOG       57  57 100 S6        30.08F VSB 3/4
STATE COLLEGE  PTCLDY    55  55  99 CALM      30.06S FOG
WILLIAMSPORT   CLOUDY    60  57  89 CALM      30.03F
SELINSGROVE    MOCLDY    61  59  93 CALM      30.06F FOG
FT INDIANTOWN  CLOUDY    61  61 100 CALM      30.06S
CAPITAL CITY   CLOUDY    62  61  96 CALM      30.06S
HARRISBURG     CLOUDY    65  62  90 N3        30.05F
YORK           CLOUDY    64  59  83 CALM      30.06F
$$

PAZ038>040-043-044-047-048-054-055-060>062-067>071-310800-
EASTERN PENNSYLVANIA

CITY           SKY/WX    TMP DP  RH WIND       PRES   REMARKS
SCRANTON       MOCLDY    60  56  86 CALM      30.06F
MOUNT POCONO   MOCLDY    57  53  86 W3        30.09S
ALLENTOWN      MOCLDY    63  57  81 CALM      30.06S
QUAKERTOWN*    MOSUNNY   57  55  94 CALM      30.08S
READING        MOCLDY    65  58  78 CALM      30.05F
LANCASTER      CLOUDY    63  60  90 CALM      30.06S
COATESVILLE    MOSUNNY   63  57  82 CALM      30.08S
POTTSTOWN      PTCLDY    58  56  93 CALM      30.08S
BLUE BELL      CLEAR     59  57  94 CALM      30.06S
DOYLESTOWN     CLEAR     59  57  93 CALM      30.06F
WILLOW GROVE   NOT AVBL
NORTH PHILA    CLEAR     64  55  72 CALM      30.08S
PHILADELPHIA   PTCLDY    66  57  72 S7        30.07S
$$



USA.gov is the U.S. government's official web portal to all federal, state and local government web resources and services.